Date,TemperatureHighF,TemperatureAvgF,TemperatureLowF,DewpointHighF,DewpointAvgF,DewpointLowF,HumidityHigh,HumidityAvg,HumidityLow,PressureMaxIn,PressureMinIn,WindSpeedMaxMPH,WindSpeedAvgMPH,GustSpeedMaxMPH,PrecipitationSumIn
2013-3-1,65.3,61.6,57.7,57.7,51.3,47.5,85,69,58,29.99,29.90,9,1,10,0.00
2013-3-2,66.4,57.6,50.5,49.5,42.5,36.1,77,58,41,30.04,29.95,20,2,20,0.00
2013-3-3,62.1,54.2,49.3,46.6,42.2,38.8,88,65,46,30.16,29.96,18,2,18,0.00
2013-3-4,66.0,53.3,41.4,46.0,38.2,31.5,87,59,29,30.22,30.12,10,1,12,0.00
2013-3-5,73.8,61.8,46.8,57.9,52.6,44.4,95,73,54,30.19,30.09,12,1,14,0.00
2013-3-6,78.3,64.4,52.5,63.5,51.5,32.9,95,67,29,30.10,29.94,18,2,18,0.00
2013-3-7,71.2,58.6,46.6,55.2,45.6,35.8,92,64,38,30.19,30.07,9,1,11,0.00
2013-3-8,74.1,61.7,50.7,54.1,51.1,44.4,92,71,36,30.20,30.11,9,1,10,0.00
2013-3-9,74.5,64.3,53.1,58.1,53.5,48.6,92,69,52,30.19,30.10,11,1,11,0.00
2013-3-10,76.5,69.9,65.8,60.8,56.6,52.2,75,63,51,30.17,30.08,7,2,10,0.00
2013-3-11,77.4,71.8,68.2,63.3,60.7,58.8,76,69,55,30.12,29.96,13,3,15,0.00
2013-3-12,79.2,73.8,70.2,70.5,66.1,61.9,85,77,68,30.01,29.91,19,4,19,0.00
2013-3-13,76.8,65.9,56.8,65.7,56.0,44.2,93,72,42,30.12,29.98,14,2,14,0.00
2013-3-14,70.7,60.6,53.2,52.9,47.9,39.2,90,65,36,30.21,30.09,15,2,16,0.00
2013-3-15,72.5,62.0,52.0,55.0,50.7,44.4,84,67,51,30.25,30.15,10,1,10,0.00
2013-3-16,75.0,64.6,52.7,56.8,53.7,51.1,97,70,46,30.20,30.09,13,1,13,0.00
2013-3-17,75.9,67.8,57.0,61.9,58.6,53.6,92,73,58,30.16,30.04,13,1,14,0.00
2013-3-18,79.0,72.2,66.7,70.2,65.7,60.6,97,81,69,30.08,29.97,20,2,20,0.10
2013-3-19,80.1,71.8,66.2,69.4,67.7,64.8,97,88,62,30.01,29.83,16,1,16,0.08
2013-3-20,80.1,70.8,61.9,70.3,65.4,56.8,100,84,55,29.98,29.81,17,1,17,0.01
2013-3-21,76.3,65.6,55.0,61.7,55.1,49.1,94,71,41,29.96,29.83,12,1,14,0.00
2013-3-22,76.1,65.9,51.4,69.6,59.1,50.2,99,81,58,30.01,29.91,11,2,13,0.01
2013-3-23,83.3,76.3,70.2,74.8,72.0,68.9,98,87,71,30.00,29.81,21,2,21,0.00
2013-3-24,90.7,79.4,72.3,73.4,71.4,66.9,96,78,51,29.90,29.68,23,4,23,0.01
2013-3-25,81.3,73.6,64.6,72.5,59.2,38.3,94,65,33,29.99,29.75,13,2,15,0.02
2013-3-26,70.0,61.0,52.5,43.7,38.1,30.7,58,44,25,30.21,29.99,17,2,17,0.00
2013-3-27,68.9,56.7,45.3,48.2,41.8,33.6,78,58,39,30.25,30.17,10,1,12,0.00
2013-3-28,71.8,60.2,49.5,51.3,45.1,31.5,83,60,29,30.27,30.18,10,1,10,0.00
2013-3-29,75.6,63.9,53.1,54.3,50.0,44.8,82,62,43,30.29,30.21,11,1,11,0.00
2013-3-30,75.7,68.1,59.5,55.2,52.6,49.1,82,59,40,30.27,30.17,9,1,9,0.00
2013-3-31,79.2,72.5,67.3,66.4,62.0,54.7,83,70,59,30.19,30.05,15,3,15,0.00